Showing default

YAOGAN-31 M, 47857

Orbit data source: Space-Track

YAOGAN-31 M, 47857 is a payload satellite owned by PLA SSF (CN) in LEO that was launched on Sat, 13 Mar 2021 UTC via a CHANG ZHENG 4C launch vehicle from the Jiuquan Satellite Launch Center, China (JSC). Payload-class satellites include a variety of spacecraft equipped with specific instruments for various scientific and technological missions. These include communications satellites like Starlink; space stations such as the ISS; scientific satellites like the Hubble; Earth observation satellites from companies like Planet Labs, Umbra, and HawkEye 360; GPS; miniature CubeSats for education and research; and military/defense satellites.

Loading next visibility...
Identifier
47857, 2021-020D
Orbit
LEO
Country
Flag of CNCN / PRC
Related business
Manufacturer
DFH
Mission
Operational Defense Sigint
Bus & Motor
Unknown
Mass
~500 kg wet, ~500 kg dry
Launch date (UTC)
2021-03-13 (5 years ago)
Launch vehicle
CHANG ZHENG 4C
Launch site
Jiuquan Satellite Launch Center, China (JSC)
Object type
Payload
Rocket body
Debris
Shape & HBR
Box + 2 Pan, 0.5 m
Radar Cross Section
0.446 m², Large (>1 m²)

Expand to show TLE details & history
Last TLE update: 21 hours ago

TLE from 21 hours ago
0 YAOGAN-31 M
1 47857U 21020D   26172.54487937 -.00000033  00000-0  87246-4 0  9999
2 47857  63.4057 246.8782 0175146   0.3870 359.7261 13.45448321259045
Epoch: 2026-06-21T13:04Z
TLE epoch observation values (Epoch: 2026-06-21T13:04:37.577Z)
Latitude
-0.00002°
Longitude
140.978°
Altitude
960.023 km
Speed
7.436 km/s
True Right ascension
16h 27m 30s
True Declination
0° 00' 00"
Sunlit
Object was in full shadow at epoch
Visualization orbit readout
Latitude
Unknown
Longitude
Unknown
Altitude
Unknown
Speed
Unknown
Apparent Right ascension
Unknown
Apparent Declination
Unknown
Sunlit
N/A
Visualization observer readout
Local Sidereal Time
21:30:58
Azimuth
Unknown
Elevation
Unknown
Doppler factor
Unknown
Orbital elements
Apogee altitude
1,218.645 km
Perigee altitude
957.116 km
Semi-major axis
7,466.017 km
Eccentricity
0.01751
Inclination
63.4057°
RAAN
246.8782°
Arg. of periapsis
0.387°
True anomaly
359.71629°
Mean anomaly
359.7261°
Eccentric anomaly
359.72122°
Mean motion
3.36442 °/min
Orbital period
107 mins
BSTAR
0.000087246
Loading maneuver chart data...
Computing Atmospheric mass density...
Loading historical data...
Loading historical data...
Loading historical data...
Loading historical data...
Loading historical data...
Loading historical data...
Loading historical data...
Other satellites on launch #20 in the year 2021 (2021-03-13 UTC)

Documentation

Showing up to 5 results
|